Weather History for Montreal Mirabel, QC

Change the Weather History Date:

Thursday, November 3, 2011

  Actual Average Record
Temperature  
Mean Temperature 44 °F -  
Max Temperature 50 °F 43 °F 62 °F (1999)
Min Temperature 37 °F 29 °F 12 °F (2002)
Degree Days  
Heating Degree Days 22    
Moisture  
Dew Point 38 °F    
Average Humidity 83    
Maximum Humidity 93    
Minimum Humidity 71    
Precipitation  
Precipitation 0.00 in - - ()
Sea Level Pressure  
Sea Level Pressure 29.99 in    
Wind  
Wind Speed 3 mph ()    
Max Wind Speed 8 mph    
Max Gust Speed -    
Visibility 15.0 miles    
Events Rain    
Averages and records for this station are not official NWS values.
T = Trace of Precipitation, MM = Missing Value Source: Averaged Metar Reports

Daily Weather History Graph

Daily Weather History Graph

Search for Another Location

Airport:

Trip Planner

Search our weather history database for the weather conditions in past years. The results will help you decide how hot, cold, wet, or windy it might be!

Date:

Astronomy

Nov. 03, 2011 Rise Set
Actual Time 7:38 AM EDT 5:40 PM EDT
Civil Twilight 7:07 AM EDT 6:11 PM EDT
Nautical Twilight 6:32 AM EDT 6:46 PM EDT
Astronomical Twilight 5:57 AM EDT 7:21 PM EDT
Moon 2:21 PM EDT (11/3) 12:27 AM EDT (11/3)
Length of Visible Light 11h 04m
Length of Day
10h 01m
First Quarter, 60% of the Moon is Illuminated
Nov 3
First Quarter
Nov 10
Full
Nov 18
Last Quarter
Nov 25
New
Dec 2
First Quarter

Hourly Weather History & Observations

Time (EDT) Temp. Windchill Dew Point Humidity Pressure Visibility Wind Dir Wind Speed Gust Speed Precip Events Conditions
12:00 AM 42.8 °F - 37.4 °F 81% 30.06 in 25.0 mi Calm Calm - N/A   Partly Cloudy
1:00 AM 41.0 °F - 35.6 °F 81% 30.06 in 25.0 mi SSE 2.3 mph - N/A   Partly Cloudy
3:00 AM 42.8 °F 40.1 °F 37.4 °F 81% 30.03 in 25.0 mi South 4.6 mph - N/A   Scattered Clouds
4:00 AM 42.8 °F 39.3 °F 37.4 °F 81% 30.01 in 25.0 mi South 5.8 mph - N/A   Scattered Clouds
5:00 AM 42.8 °F - 37.4 °F 81% 29.98 in 25.0 mi WSW 2.3 mph - N/A   Partly Cloudy
6:00 AM 41.0 °F - 35.6 °F 81% 29.97 in 25.0 mi SSW 2.3 mph - N/A   Partly Cloudy
7:00 AM 41.0 °F 37.1 °F 35.6 °F 81% 29.94 in 25.0 mi South 5.8 mph - N/A   Partly Cloudy
8:00 AM 39.2 °F - 35.6 °F 87% 29.96 in 25.0 mi West 2.3 mph - N/A   Mostly Cloudy
9:00 AM 44.6 °F 42.2 °F 39.2 °F 81% 29.96 in 25.0 mi WSW 4.6 mph - N/A   Mostly Cloudy
10:00 AM 50.0 °F - 41.0 °F 71% 29.95 in 25.0 mi WSW 6.9 mph - N/A   Overcast
11:00 AM 50.0 °F - 41.0 °F 71% 29.94 in 25.0 mi WSW 8.1 mph - N/A   Overcast
1:00 PM 50.0 °F - 42.8 °F 76% 29.94 in 25.0 mi WSW 4.6 mph - N/A   Overcast
1:38 PM 50.0 °F - 41.0 °F 71% - 25.0 mi NW 8.1 mph - N/A Rain Light Rain Showers
2:00 PM 48.2 °F - 42.8 °F 82% 29.94 in 20.0 mi NW 4.6 mph - N/A Rain Light Rain Showers
3:00 PM 44.6 °F 42.2 °F 41.0 °F 87% 29.96 in 10.0 mi North 4.6 mph - N/A Rain Light Rain Showers
4:00 PM 44.6 °F 43.1 °F 42.8 °F 93% 29.97 in 10.0 mi WNW 3.5 mph - N/A Rain Light Rain Showers
5:00 PM 44.6 °F - 41.0 °F 87% 29.98 in 20.0 mi West 2.3 mph - N/A   Overcast
6:00 PM 42.8 °F 40.1 °F 39.2 °F 87% 30.00 in 25.0 mi West 4.6 mph - N/A   Overcast
6:28 PM 41.0 °F 39.0 °F 39.2 °F 93% - 25.0 mi West 3.5 mph - N/A   Overcast
7:00 PM 41.0 °F 38.0 °F 39.2 °F 93% 30.01 in 25.0 mi WSW 4.6 mph - N/A   Mostly Cloudy
8:00 PM 37.4 °F 32.8 °F 35.6 °F 93% 30.03 in 25.0 mi West 5.8 mph - N/A   Partly Cloudy
9:00 PM 37.4 °F 34.9 °F 35.6 °F 93% 30.03 in 25.0 mi West 3.5 mph - N/A   Mostly Cloudy
10:00 PM 39.2 °F 35.9 °F 33.8 °F 81% 30.04 in 25.0 mi NW 4.6 mph - N/A   Partly Cloudy
11:00 PM 37.4 °F 34.9 °F 33.8 °F 87% 30.04 in 25.0 mi WNW 3.5 mph - N/A   Partly Cloudy